| time (UTC) | temp F | wind direction | speed MPH | gust MPH | rain 1hr in | rain 24hr in | rain mn in | humidity % | barometer mb |
| 20260507050932 | 54 | 178 | 1.0 | 2.0 | 0.00 | 0.00 | 0.00 | 81 | 1022.7 |
| 20260507050429 | 54 | 176 | 1.0 | 3.0 | 0.00 | 0.00 | 0.00 | 81 | 1022.4 |
| 20260507045926 | 54 | 199 | 1.0 | 2.0 | 0.00 | 0.00 | 0.00 | 81 | 1022.4 |
| 20260507045422 | 55 | 299 | 1.0 | 8.0 | 0.00 | 0.00 | 0.00 | 80 | 1022.4 |
| 20260507044920 | 55 | 278 | 2.0 | 4.0 | 0.00 | 0.00 | 0.00 | 79 | 1022.4 |
| 20260507044416 | 55 | 307 | 2.0 | 3.0 | 0.00 | 0.00 | 0.00 | 79 | 1022.4 |
| 20260507043912 | 55 | 207 | 3.0 | 7.0 | 0.00 | 0.00 | 0.00 | 79 | 1022.4 |
| 20260507043409 | 55 | 179 | 0.0 | 6.0 | 0.00 | 0.00 | 0.00 | 78 | 1022.7 |
| 20260507042905 | 55 | 168 | 1.0 | 3.0 | 0.00 | 0.00 | 0.00 | 79 | 1022.5 |
| 20260507042402 | 55 | 165 | 1.0 | 2.0 | 0.00 | 0.00 | 0.00 | 79 | 1022.4 |
| 20260507041857 | 56 | 165 | 1.0 | 3.0 | 0.00 | 0.00 | 0.00 | 79 | 1022.3 |
| 20260507041354 | 56 | 169 | 1.0 | 2.0 | 0.00 | 0.00 | 0.00 | 78 | 1022.3 |
| 20260507040852 | 56 | 181 | 1.0 | 2.0 | 0.00 | 0.00 | 0.00 | 79 | 1022.4 |
| 20260507040347 | 56 | 227 | 1.0 | 3.0 | 0.00 | 0.00 | 0.00 | 78 | 1022.2 |
| 20260507035844 | 56 | 163 | 2.0 | 6.0 | 0.00 | 0.00 | 0.00 | 78 | 1022.2 |
| 20260507035339 | 56 | 191 | 2.0 | 4.0 | 0.00 | 0.00 | 0.00 | 78 | 1022.1 |
| 20260507034837 | 56 | 176 | 2.0 | 4.0 | 0.00 | 0.00 | 0.00 | 77 | 1022.0 |
| 20260507034334 | 56 | 57 | 3.0 | 3.0 | 0.00 | 0.00 | 0.00 | 77 | 1021.9 |
| 20260507033832 | 57 | 153 | 4.0 | 8.0 | 0.00 | 0.00 | 0.00 | 77 | 1021.9 |
| 20260507033330 | 57 | 190 | 2.0 | 3.0 | 0.00 | 0.00 | 0.00 | 77 | 1022.1 |
| 20260507032826 | 57 | 180 | 3.0 | 3.0 | 0.00 | 0.00 | 0.00 | 77 | 1021.8 |
| 20260507032322 | 57 | 192 | 1.0 | 3.0 | 0.00 | 0.00 | 0.00 | 77 | 1021.7 |
| 20260507031819 | 57 | 179 | 2.0 | 6.0 | 0.00 | 0.00 | 0.00 | 76 | 1021.7 |
| 20260507031316 | 57 | 185 | 2.0 | 8.0 | 0.00 | 0.00 | 0.00 | 76 | 1021.6 |
| 20260507030812 | 58 | 104 | 4.0 | 6.0 | 0.00 | 0.00 | 0.00 | 76 | 1021.5 |
| 20260507030310 | 58 | 221 | 1.0 | 4.0 | 0.00 | 0.00 | 0.00 | 76 | 1021.5 |
| 20260507025807 | 58 | 140 | 4.0 | 6.0 | 0.00 | 0.00 | 0.00 | 76 | 1021.4 |
| 20260507025306 | 58 | 134 | 1.0 | 4.0 | 0.00 | 0.00 | 0.00 | 77 | 1021.3 |
| 20260507024802 | 59 | 275 | 1.0 | 6.0 | 0.00 | 0.00 | 0.00 | 76 | 1021.3 |
| 20260507024259 | 59 | 311 | 3.0 | 4.0 | 0.00 | 0.00 | 0.00 | 76 | 1021.3 |
| 20260507023755 | 59 | 12 | 1.0 | 3.0 | 0.00 | 0.00 | 0.00 | 76 | 1021.4 |
| 20260507023252 | 59 | 194 | 2.0 | 3.0 | 0.00 | 0.00 | 0.00 | 76 | 1021.4 |
| 20260507022749 | 59 | 190 | 2.0 | 2.0 | 0.00 | 0.00 | 0.00 | 75 | 1021.1 |
| 20260507022245 | 59 | 192 | 1.0 | 2.0 | 0.00 | 0.00 | 0.00 | 75 | 1021.1 |
| 20260507021741 | 60 | 180 | 1.0 | 6.0 | 0.00 | 0.00 | 0.00 | 75 | 1021.2 |
| 20260507021237 | 60 | 269 | 2.0 | 3.0 | 0.00 | 0.00 | 0.00 | 74 | 1021.2 |
| 20260507020735 | 60 | 177 | 1.0 | 6.0 | 0.00 | 0.00 | 0.00 | 75 | 1021.2 |
| 20260507020231 | 60 | 317 | 2.0 | 4.0 | 0.00 | 0.00 | 0.00 | 74 | 1021.1 |
| 20260507015729 | 61 | 306 | 2.0 | 4.0 | 0.00 | 0.00 | 0.00 | 74 | 1021.2 |
| 20260507015226 | 61 | 119 | 1.0 | 3.0 | 0.00 | 0.00 | 0.00 | 73 | 1021.4 |
| 20260507014723 | 61 | 328 | 2.0 | 6.0 | 0.00 | 0.00 | 0.00 | 73 | 1021.2 |
| 20260507014219 | 61 | 195 | 2.0 | 4.0 | 0.00 | 0.00 | 0.00 | 73 | 1021.4 |
| 20260507013716 | 62 | 178 | 2.0 | 6.0 | 0.00 | 0.00 | 0.00 | 73 | 1021.3 |
| 20260507013214 | 62 | 218 | 2.0 | 6.0 | 0.00 | 0.00 | 0.00 | 73 | 1021.2 |
| 20260507012711 | 62 | 178 | 1.0 | 3.0 | 0.00 | 0.00 | 0.00 | 72 | 1021.5 |
| 20260507012206 | 62 | 163 | 1.0 | 4.0 | 0.00 | 0.00 | 0.00 | 73 | 1021.6 |
| 20260507011704 | 62 | 214 | 2.0 | 3.0 | 0.00 | 0.00 | 0.00 | 72 | 1021.2 |
| 20260507011200 | 62 | 169 | 4.0 | 8.0 | 0.00 | 0.00 | 0.00 | 72 | 1021.4 |
| 20260507010700 | 62 | 202 | 4.0 | 6.0 | 0.00 | 0.00 | 0.00 | 72 | 1021.5 |
| 20260507010156 | 62 | 286 | 3.0 | 6.0 | 0.00 | 0.00 | 0.00 | 71 | 1021.5 |
| 20260507005654 | 63 | 233 | 2.0 | 7.0 | 0.00 | 0.00 | 0.00 | 70 | 1021.3 |
| 20260507005150 | 63 | 176 | 1.0 | 4.0 | 0.00 | 0.00 | 0.00 | 70 | 1021.5 |
| 20260507004647 | 64 | 353 | 3.0 | 4.0 | 0.00 | 0.00 | 0.00 | 69 | 1021.4 |
| 20260507004144 | 64 | 175 | 1.0 | 3.0 | 0.00 | 0.00 | 0.00 | 70 | 1021.2 |
| 20260507003641 | 64 | 318 | 2.0 | 6.0 | 0.00 | 0.00 | 0.00 | 70 | 1021.2 |
| 20260507003140 | 65 | 177 | 1.0 | 2.0 | 0.00 | 0.00 | 0.00 | 69 | 1021.3 |
| 20260507002637 | 65 | 142 | 2.0 | 3.0 | 0.00 | 0.00 | 0.00 | 68 | 1021.1 |
| 20260507002133 | 65 | 154 | 2.0 | 6.0 | 0.00 | 0.00 | 0.00 | 69 | 1021.2 |
| 20260507001630 | 65 | 170 | 2.0 | 3.0 | 0.00 | 0.00 | 0.00 | 69 | 1021.0 |
| 20260507001128 | 65 | 184 | 2.0 | 3.0 | 0.00 | 0.00 | 0.00 | 68 | 1021.2 |
| 20260507000624 | 65 | 187 | 2.0 | 6.0 | 0.00 | 0.00 | 0.00 | 69 | 1021.2 |
| 20260507000119 | 66 | 215 | 2.0 | 2.0 | 0.00 | 0.00 | 0.00 | 68 | 1021.3 |
| 20260506235617 | 66 | 181 | 2.0 | 2.0 | 0.00 | 0.00 | 0.00 | 68 | 1021.2 |
| 20260506235117 | 66 | 182 | 1.0 | 3.0 | 0.00 | 0.00 | 0.00 | 69 | 1021.1 |
| 20260506234614 | 66 | 157 | 0.0 | 3.0 | 0.00 | 0.00 | 0.00 | 71 | 1021.0 |
| 20260506234111 | 66 | 99 | 2.0 | 4.0 | 0.00 | 0.00 | 0.00 | 71 | 1021.0 |
| 20260506233608 | 66 | 176 | 1.0 | 3.0 | 0.00 | 0.00 | 0.00 | 70 | 1021.2 |
| 20260506233105 | 66 | 180 | 1.0 | 3.0 | 0.00 | 0.00 | 0.00 | 71 | 1020.9 |
| 20260506232601 | 66 | 113 | 2.0 | 3.0 | 0.00 | 0.00 | 0.00 | 70 | 1021.2 |
| 20260506232102 | 66 | 154 | 1.0 | 3.0 | 0.00 | 0.00 | 0.00 | 70 | 1021.0 |
| 20260506231559 | 66 | 184 | 2.0 | 3.0 | 0.00 | 0.00 | 0.00 | 70 | 1021.1 |
| 20260506231057 | 67 | 146 | 2.0 | 2.0 | 0.00 | 0.00 | 0.00 | 68 | 1021.1 |
| 20260506230553 | 67 | 180 | 0.0 | 1.0 | 0.00 | 0.00 | 0.00 | 71 | 1021.2 |
| 20260506230051 | 66 | 189 | 2.0 | 2.0 | 0.00 | 0.00 | 0.00 | 70 | 1021.4 |
| 20260506225548 | 67 | 162 | 0.0 | 3.0 | 0.00 | 0.00 | 0.00 | 69 | 1021.2 |
| 20260506225044 | 67 | 179 | 1.0 | 3.0 | 0.00 | 0.00 | 0.00 | 69 | 1021.4 |
| 20260506224541 | 67 | 218 | 2.0 | 3.0 | 0.00 | 0.00 | 0.00 | 69 | 1021.3 |
| 20260506224037 | 67 | 180 | 0.0 | 4.0 | 0.00 | 0.00 | 0.00 | 70 | 1021.3 |
| 20260506223533 | 67 | 184 | 1.0 | 2.0 | 0.00 | 0.00 | 0.00 | 70 | 1021.3 |
| 20260506223030 | 66 | 99 | 0.0 | 2.0 | 0.00 | 0.00 | 0.00 | 70 | 1021.5 |
| 20260506222527 | 67 | 117 | 0.0 | 3.0 | 0.00 | 0.00 | 0.00 | 69 | 1021.3 |
| 20260506222023 | 67 | 235 | 2.0 | 3.0 | 0.00 | 0.00 | 0.00 | 69 | 1021.7 |
| 20260506221521 | 67 | 141 | 1.0 | 2.0 | 0.00 | 0.00 | 0.00 | 70 | 1021.6 |
| 20260506221019 | 67 | 148 | 1.0 | 1.0 | 0.00 | 0.00 | 0.00 | 69 | 1021.6 |
| 20260506220514 | 67 | 180 | 1.0 | 2.0 | 0.00 | 0.00 | 0.00 | 67 | 1021.6 |
| 20260506220010 | 66 | 185 | 0.0 | 2.0 | 0.00 | 0.00 | 0.00 | 68 | 1021.6 |
| 20260506215507 | 66 | 178 | 0.0 | 1.0 | 0.00 | 0.00 | 0.00 | 72 | 1021.6 |
| 20260506215003 | 66 | 191 | 0.0 | 2.0 | 0.00 | 0.00 | 0.00 | 73 | 1021.7 |
| 20260506214500 | 65 | 145 | 1.0 | 1.0 | 0.00 | 0.00 | 0.00 | 72 | 1021.6 |
| 20260506213957 | 66 | 140 | 2.0 | 2.0 | 0.00 | 0.00 | 0.00 | 71 | 1021.8 |
| 20260506213455 | 65 | 162 | 0.0 | 2.0 | 0.00 | 0.00 | 0.00 | 72 | 1021.8 |
| 20260506212952 | 66 | 112 | 3.0 | 3.0 | 0.00 | 0.00 | 0.00 | 70 | 1021.7 |
| 20260506212448 | 67 | 126 | 0.0 | 2.0 | 0.00 | 0.00 | 0.00 | 69 | 1021.7 |
| 20260506211943 | 66 | 182 | 0.0 | 2.0 | 0.00 | 0.00 | 0.00 | 69 | 1021.5 |
| 20260506211439 | 66 | 168 | 0.0 | 1.0 | 0.00 | 0.00 | 0.00 | 71 | 1021.7 |
| 20260506210937 | 66 | 179 | 2.0 | 2.0 | 0.00 | 0.00 | 0.00 | 71 | 1021.9 |
| 20260506210433 | 65 | 188 | 1.0 | 2.0 | 0.00 | 0.00 | 0.00 | 70 | 1022.0 |
| 20260506205930 | 65 | 172 | 1.0 | 2.0 | 0.00 | 0.00 | 0.00 | 71 | 1022.1 |
| 20260506205426 | 65 | 159 | 0.0 | 2.0 | 0.00 | 0.00 | 0.00 | 72 | 1022.0 |
| 20260506204923 | 64 | 180 | 0.0 | 1.0 | 0.00 | 0.00 | 0.00 | 73 | 1021.8 |
| 20260506204421 | 64 | 75 | 2.0 | 3.0 | 0.00 | 0.00 | 0.00 | 71 | 1022.2 |
| 20260506203918 | 65 | 163 | 1.0 | 1.0 | 0.00 | 0.00 | 0.00 | 72 | 1022.1 |
| 20260506203415 | 64 | 133 | 2.0 | 2.0 | 0.00 | 0.00 | 0.00 | 72 | 1022.1 |
| 20260506202912 | 64 | 161 | 1.0 | 1.0 | 0.00 | 0.00 | 0.00 | 72 | 1022.0 |
| 20260506202409 | 65 | 200 | 0.0 | 1.0 | 0.00 | 0.00 | 0.00 | 71 | 1021.8 |
| 20260506201905 | 65 | 191 | 1.0 | 2.0 | 0.00 | 0.00 | 0.00 | 71 | 1021.8 |
| 20260506201403 | 65 | 227 | 1.0 | 3.0 | 0.00 | 0.00 | 0.00 | 71 | 1021.8 |
| 20260506200859 | 65 | 120 | 0.0 | 1.0 | 0.00 | 0.00 | 0.00 | 72 | 1021.8 |
| 20260506200355 | 63 | 176 | 0.0 | 1.0 | 0.00 | 0.00 | 0.00 | 74 | 1021.9 |
| 20260506195852 | 63 | 172 | 0.0 | 3.0 | 0.00 | 0.00 | 0.00 | 75 | 1022.0 |
| 20260506195349 | 64 | 171 | 0.0 | 2.0 | 0.00 | 0.00 | 0.00 | 76 | 1022.1 |
| 20260506194846 | 63 | 170 | 0.0 | 1.0 | 0.00 | 0.00 | 0.00 | 75 | 1022.2 |
| 20260506194343 | 62 | 178 | 0.0 | 1.0 | 0.00 | 0.00 | 0.00 | 77 | 1022.3 |
| 20260506193840 | 61 | 174 | 0.0 | 3.0 | 0.00 | 0.00 | 0.00 | 78 | 1022.3 |
| 20260506193336 | 62 | 179 | 0.0 | 1.0 | 0.00 | 0.00 | 0.00 | 77 | 1022.4 |
| 20260506192833 | 61 | 204 | 1.0 | 2.0 | 0.00 | 0.00 | 0.00 | 77 | 1022.3 |
| 20260506192330 | 61 | 195 | 1.0 | 3.0 | 0.00 | 0.00 | 0.00 | 78 | 1022.3 |
| 20260506191827 | 61 | 180 | 0.0 | 0.0 | 0.00 | 0.00 | 0.00 | 78 | 1022.4 |
| 20260506191323 | 61 | 166 | 0.0 | 2.0 | 0.00 | 0.00 | 0.00 | 77 | 1022.3 |
| 20260506190820 | 61 | 150 | 1.0 | 2.0 | 0.00 | 0.00 | 0.00 | 77 | 1022.3 |
| 20260506190317 | 61 | 219 | 1.0 | 2.0 | 0.00 | 0.00 | 0.00 | 78 | 1022.3 |
| 20260506185814 | 61 | 209 | 0.0 | 1.0 | 0.00 | 0.00 | 0.00 | 77 | 1022.2 |
| 20260506185311 | 61 | 171 | 0.0 | 1.0 | 0.00 | 0.00 | 0.00 | 77 | 1022.2 |
| 20260506184808 | 61 | 157 | 0.0 | 1.0 | 0.00 | 0.00 | 0.00 | 77 | 1022.0 |
| 20260506184305 | 60 | 172 | 0.0 | 0.0 | 0.00 | 0.00 | 0.00 | 78 | 1022.3 |
| 20260506183802 | 60 | 159 | 1.0 | 2.0 | 0.00 | 0.00 | 0.00 | 79 | 1022.2 |
| 20260506183257 | 60 | 160 | 1.0 | 2.0 | 0.00 | 0.00 | 0.00 | 78 | 1022.3 |
| 20260506182754 | 60 | 152 | 1.0 | 1.0 | 0.00 | 0.00 | 0.00 | 78 | 1022.2 |
| 20260506182252 | 60 | 159 | 0.0 | 1.0 | 0.00 | 0.00 | 0.00 | 77 | 1022.2 |
| 20260506181749 | 60 | 172 | 0.0 | 1.0 | 0.00 | 0.00 | 0.00 | 78 | 1022.1 |
| 20260506181247 | 60 | 168 | 1.0 | 3.0 | 0.00 | 0.00 | 0.00 | 79 | 1022.1 |
| 20260506180744 | 60 | 184 | 0.0 | 1.0 | 0.00 | 0.00 | 0.00 | 79 | 1022.1 |
| 20260506180239 | 60 | 177 | 0.0 | 1.0 | 0.00 | 0.00 | 0.00 | 78 | 1022.0 |
| 20260506175736 | 60 | 177 | 0.0 | 0.0 | 0.00 | 0.00 | 0.00 | 78 | 1022.2 |
| 20260506175233 | 60 | 192 | 0.0 | 1.0 | 0.00 | 0.00 | 0.00 | 78 | 1022.1 |
| 20260506174731 | 59 | 174 | 0.0 | 1.0 | 0.00 | 0.00 | 0.00 | 79 | 1022.1 |
| 20260506174227 | 60 | 148 | 0.0 | 0.0 | 0.00 | 0.00 | 0.00 | 79 | 1021.8 |
| 20260506173725 | 59 | 169 | 0.0 | 1.0 | 0.00 | 0.00 | 0.00 | 79 | 1022.0 |
| 20260506173222 | 59 | 182 | 0.0 | 1.0 | 0.00 | 0.00 | 0.00 | 79 | 1021.7 |
| 20260506172719 | 59 | 174 | 0.0 | 1.0 | 0.00 | 0.00 | 0.00 | 78 | 1021.8 |
| 20260506172215 | 60 | 236 | 1.0 | 2.0 | 0.00 | 0.00 | 0.00 | 78 | 1021.8 |
| 20260506171712 | 59 | 174 | 0.0 | 1.0 | 0.00 | 0.00 | 0.00 | 78 | 1021.7 |
| 20260506171210 | 59 | 179 | 0.0 | 0.0 | 0.00 | 0.00 | 0.00 | 79 | 1021.9 |
| 20260506170707 | 58 | 175 | 1.0 | 1.0 | 0.00 | 0.00 | 0.00 | 79 | 1021.9 |
| 20260506170204 | 58 | 215 | 1.0 | 1.0 | 0.00 | 0.00 | 0.00 | 79 | 1021.8 |
| 20260506165702 | 58 | 182 | 0.0 | 3.0 | 0.00 | 0.00 | 0.00 | 80 | 1021.9 |
| 20260506165159 | 58 | 176 | 0.0 | 2.0 | 0.00 | 0.00 | 0.00 | 80 | 1021.9 |
| 20260506164656 | 58 | 178 | 1.0 | 1.0 | 0.00 | 0.00 | 0.00 | 80 | 1021.7 |
| 20260506164153 | 58 | 191 | 1.0 | 1.0 | 0.00 | 0.00 | 0.00 | 81 | 1021.8 |
| 20260506163649 | 57 | 183 | 0.0 | 1.0 | 0.00 | 0.00 | 0.00 | 82 | 1021.8 |
| 20260506163145 | 57 | 175 | 0.0 | 1.0 | 0.00 | 0.00 | 0.00 | 81 | 1021.9 |
| 20260506162641 | 57 | 210 | 1.0 | 1.0 | 0.00 | 0.00 | 0.00 | 82 | 1021.8 |
| 20260506162139 | 57 | 225 | 1.0 | 2.0 | 0.00 | 0.00 | 0.00 | 82 | 1021.7 |
| 20260506161636 | 57 | 189 | 0.0 | 2.0 | 0.00 | 0.00 | 0.00 | 81 | 1021.8 |
| 20260506161132 | 57 | 193 | 1.0 | 1.0 | 0.00 | 0.00 | 0.00 | 81 | 1021.8 |
| 20260506160630 | 57 | 187 | 1.0 | 1.0 | 0.00 | 0.00 | 0.00 | 81 | 1021.7 |
| 20260506160127 | 57 | 182 | 0.0 | 1.0 | 0.00 | 0.00 | 0.00 | 81 | 1021.5 |
| 20260506155626 | 57 | 183 | 0.0 | 1.0 | 0.00 | 0.00 | 0.00 | 81 | 1021.6 |
| 20260506155123 | 57 | 172 | 0.0 | 1.0 | 0.00 | 0.00 | 0.00 | 81 | 1021.1 |
| 20260506153224 | 57 | 172 | 0.0 | 1.0 | 0.00 | 0.00 | 0.00 | 82 | 1021.1 |
| 20260506152721 | 57 | 167 | 0.0 | 1.0 | 0.00 | 0.00 | 0.00 | 82 | 1021.3 |
| 20260506152219 | 56 | 177 | 0.0 | 1.0 | 0.00 | 0.00 | 0.00 | 84 | 1021.2 |
| 20260506151718 | 55 | 176 | 0.0 | 0.0 | 0.00 | 0.00 | 0.00 | 86 | 1021.8 |
| 20260506151214 | 55 | 174 | 1.0 | 2.0 | 0.00 | 0.00 | 0.00 | 85 | 1021.7 |
| 20260506150710 | 55 | 186 | 0.0 | 1.0 | 0.00 | 0.00 | 0.00 | 86 | 1021.8 |
| 20260506150207 | 55 | 178 | 0.0 | 3.0 | 0.00 | 0.00 | 0.00 | 86 | 1021.8 |
| 20260506145704 | 55 | 175 | 0.0 | 1.0 | 0.00 | 0.00 | 0.00 | 86 | 1021.6 |
| 20260506145201 | 55 | 167 | 1.0 | 3.0 | 0.00 | 0.00 | 0.00 | 86 | 1021.6 |
| 20260506144659 | 55 | 12 | 2.0 | 2.0 | 0.00 | 0.00 | 0.00 | 86 | 1021.7 |
| 20260506144155 | 55 | 211 | 0.0 | 2.0 | 0.00 | 0.00 | 0.00 | 86 | 1021.7 |
| 20260506143653 | 55 | 177 | 0.0 | 1.0 | 0.00 | 0.00 | 0.00 | 87 | 1021.5 |
| 20260506143150 | 55 | 176 | 1.0 | 2.0 | 0.00 | 0.00 | 0.00 | 87 | 1021.5 |
| 20260506142649 | 55 | 177 | 0.0 | 2.0 | 0.00 | 0.00 | 0.00 | 87 | 1021.6 |
| 20260506142146 | 55 | 8 | 2.0 | 3.0 | 0.00 | 0.00 | 0.00 | 87 | 1021.2 |
| 20260506141644 | 55 | 244 | 1.0 | 2.0 | 0.00 | 0.00 | 0.00 | 87 | 1021.2 |
| 20260506141142 | 55 | 180 | 0.0 | 1.0 | 0.00 | 0.00 | 0.00 | 87 | 1021.1 |
| 20260506140639 | 55 | 167 | 0.0 | 1.0 | 0.00 | 0.00 | 0.00 | 87 | 1021.0 |
| 20260506140136 | 55 | 171 | 0.0 | 1.0 | 0.00 | 0.00 | 0.00 | 88 | 1021.0 |
| 20260506135633 | 54 | 175 | 1.0 | 2.0 | 0.00 | 0.00 | 0.00 | 88 | 1021.0 |
| 20260506135129 | 54 | 243 | 2.0 | 3.0 | 0.00 | 0.00 | 0.00 | 88 | 1020.9 |
| 20260506134626 | 54 | 263 | 1.0 | 2.0 | 0.00 | 0.00 | 0.00 | 89 | 1021.1 |
| 20260506134121 | 54 | 176 | 0.0 | 2.0 | 0.00 | 0.00 | 0.00 | 89 | 1021.0 |
| 20260506133619 | 54 | 176 | 0.0 | 2.0 | 0.00 | 0.00 | 0.00 | 89 | 1020.7 |
| 20260506133116 | 54 | 178 | 0.0 | 2.0 | 0.00 | 0.00 | 0.00 | 89 | 1021.0 |
| 20260506132614 | 54 | 181 | 1.0 | 3.0 | 0.00 | 0.00 | 0.00 | 89 | 1020.7 |
| 20260506132110 | 54 | 174 | 0.0 | 1.0 | 0.00 | 0.00 | 0.00 | 89 | 1020.9 |
| 20260506131608 | 54 | 174 | 0.0 | 1.0 | 0.00 | 0.00 | 0.00 | 89 | 1020.7 |
| 20260506131104 | 54 | 185 | 0.0 | 2.0 | 0.00 | 0.00 | 0.00 | 89 | 1020.5 |
| 20260506130601 | 54 | 188 | 1.0 | 3.0 | 0.00 | 0.00 | 0.00 | 89 | 1020.5 |
| 20260506130058 | 54 | 177 | 0.0 | 1.0 | 0.00 | 0.00 | 0.00 | 89 | 1020.4 |
| 20260506125557 | 54 | 172 | 0.0 | 1.0 | 0.00 | 0.00 | 0.00 | 89 | 1020.5 |
| 20260506125054 | 54 | 181 | 1.0 | 1.0 | 0.00 | 0.00 | 0.00 | 89 | 1020.5 |
| 20260506124552 | 54 | 183 | 0.0 | 0.0 | 0.00 | 0.00 | 0.00 | 89 | 1020.3 |
| 20260506124049 | 54 | 175 | 1.0 | 1.0 | 0.00 | 0.00 | 0.00 | 89 | 1020.3 |
| 20260506123547 | 55 | 170 | 0.0 | 1.0 | 0.00 | 0.00 | 0.00 | 89 | 1020.2 |
| 20260506123045 | 55 | 181 | 0.0 | 0.0 | 0.00 | 0.00 | 0.00 | 89 | 1020.1 |
| 20260506122541 | 55 | 188 | 0.0 | 1.0 | 0.00 | 0.00 | 0.00 | 88 | 1020.3 |
| 20260506122040 | 55 | 184 | 1.0 | 3.0 | 0.00 | 0.00 | 0.00 | 88 | 1020.2 |
| 20260506121537 | 55 | 181 | 0.0 | 1.0 | 0.00 | 0.00 | 0.00 | 88 | 1020.4 |
| 20260506121033 | 55 | 181 | 1.0 | 2.0 | 0.00 | 0.00 | 0.00 | 88 | 1020.4 |
| 20260506120531 | 55 | 214 | 1.0 | 2.0 | 0.00 | 0.00 | 0.00 | 88 | 1020.3 |
| 20260506120028 | 55 | 182 | 0.0 | 1.0 | 0.00 | 0.00 | 0.00 | 88 | 1020.2 |
| 20260506115526 | 55 | 172 | 0.0 | 1.0 | 0.00 | 0.00 | 0.00 | 88 | 1020.1 |
| 20260506115024 | 55 | 176 | 1.0 | 1.0 | 0.00 | 0.00 | 0.00 | 88 | 1020.2 |
| 20260506114521 | 55 | 173 | 0.0 | 1.0 | 0.00 | 0.00 | 0.00 | 88 | 1020.1 |
| 20260506114020 | 55 | 176 | 1.0 | 3.0 | 0.00 | 0.00 | 0.00 | 88 | 1020.0 |
| 20260506113517 | 55 | 172 | 0.0 | 1.0 | 0.00 | 0.00 | 0.00 | 88 | 1019.9 |
| 20260506113014 | 55 | 171 | 1.0 | 1.0 | 0.00 | 0.00 | 0.00 | 88 | 1019.8 |
| 20260506112511 | 55 | 175 | 1.0 | 2.0 | 0.00 | 0.00 | 0.00 | 87 | 1019.7 |
| 20260506112008 | 55 | 216 | 2.0 | 2.0 | 0.00 | 0.00 | 0.00 | 87 | 1019.9 |
| 20260506111506 | 55 | 176 | 0.0 | 3.0 | 0.00 | 0.00 | 0.00 | 87 | 1019.8 |
| 20260506111003 | 55 | 182 | 1.0 | 4.0 | 0.00 | 0.00 | 0.00 | 87 | 1019.9 |
| 20260506110501 | 55 | 177 | 1.0 | 1.0 | 0.00 | 0.00 | 0.00 | 87 | 1019.7 |
| 20260506105957 | 55 | 176 | 0.0 | 3.0 | 0.00 | 0.00 | 0.00 | 87 | 1019.6 |
| 20260506105453 | 55 | 164 | 0.0 | 3.0 | 0.00 | 0.00 | 0.00 | 87 | 1019.6 |
| 20260506104951 | 55 | 179 | 0.0 | 1.0 | 0.00 | 0.00 | 0.00 | 87 | 1019.6 |
| 20260506104449 | 55 | 291 | 1.0 | 1.0 | 0.00 | 0.00 | 0.00 | 87 | 1019.3 |
| 20260506103947 | 55 | 176 | 0.0 | 1.0 | 0.00 | 0.00 | 0.00 | 87 | 1019.4 |
| 20260506103444 | 56 | 178 | 1.0 | 2.0 | 0.00 | 0.00 | 0.00 | 87 | 1019.4 |
| 20260506102940 | 56 | 195 | 0.0 | 1.0 | 0.00 | 0.00 | 0.00 | 86 | 1019.2 |
| 20260506102439 | 56 | 180 | 0.0 | 1.0 | 0.00 | 0.00 | 0.00 | 87 | 1019.3 |
| 20260506101936 | 56 | 274 | 1.0 | 1.0 | 0.00 | 0.00 | 0.00 | 87 | 1019.2 |
| 20260506101432 | 56 | 177 | 0.0 | 1.0 | 0.00 | 0.00 | 0.00 | 87 | 1019.1 |
| 20260506100929 | 56 | 175 | 0.0 | 0.0 | 0.00 | 0.00 | 0.00 | 87 | 1019.2 |
| 20260506100427 | 56 | 160 | 0.0 | 0.0 | 0.00 | 0.00 | 0.00 | 87 | 1019.0 |
| 20260506095925 | 56 | 176 | 1.0 | 2.0 | 0.00 | 0.00 | 0.00 | 86 | 1019.1 |
| 20260506095424 | 56 | 172 | 0.0 | 1.0 | 0.00 | 0.00 | 0.00 | 86 | 1019.2 |
| 20260506094919 | 56 | 175 | 0.0 | 1.0 | 0.00 | 0.00 | 0.00 | 86 | 1019.0 |
| 20260506094418 | 56 | 175 | 0.0 | 0.0 | 0.00 | 0.00 | 0.00 | 87 | 1018.9 |
| 20260506093915 | 56 | 175 | 0.0 | 1.0 | 0.00 | 0.00 | 0.00 | 86 | 1018.9 |
| 20260506093413 | 56 | 177 | 0.0 | 2.0 | 0.00 | 0.00 | 0.00 | 86 | 1018.9 |
| 20260506092911 | 56 | 177 | 0.0 | 2.0 | 0.00 | 0.00 | 0.00 | 86 | 1018.9 |
| 20260506092409 | 56 | 294 | 1.0 | 1.0 | 0.00 | 0.00 | 0.00 | 86 | 1018.9 |
| 20260506091905 | 56 | 187 | 0.0 | 1.0 | 0.00 | 0.00 | 0.00 | 86 | 1018.8 |
| 20260506091403 | 56 | 182 | 0.0 | 1.0 | 0.00 | 0.00 | 0.00 | 86 | 1018.8 |
| 20260506090900 | 56 | 174 | 0.0 | 1.0 | 0.00 | 0.00 | 0.00 | 86 | 1018.7 |
| 20260506090357 | 56 | 170 | 1.0 | 2.0 | 0.00 | 0.00 | 0.00 | 86 | 1018.8 |
| 20260506085854 | 56 | 167 | 0.0 | 2.0 | 0.00 | 0.00 | 0.00 | 86 | 1018.9 |
| 20260506085350 | 56 | 192 | 0.0 | 1.0 | 0.00 | 0.00 | 0.00 | 86 | 1018.9 |
| 20260506084847 | 56 | 182 | 0.0 | 2.0 | 0.00 | 0.00 | 0.00 | 85 | 1018.9 |
| 20260506084344 | 56 | 176 | 1.0 | 1.0 | 0.00 | 0.00 | 0.00 | 85 | 1019.1 |
| 20260506083840 | 56 | 180 | 0.0 | 0.0 | 0.00 | 0.00 | 0.00 | 85 | 1018.9 |
| 20260506083338 | 56 | 176 | 0.0 | 1.0 | 0.00 | 0.00 | 0.00 | 85 | 1018.8 |
| 20260506082835 | 56 | 182 | 0.0 | 1.0 | 0.00 | 0.00 | 0.00 | 85 | 1018.8 |
| 20260506082331 | 56 | 190 | 0.0 | 0.0 | 0.00 | 0.00 | 0.00 | 85 | 1018.9 |
| 20260506081828 | 56 | 185 | 0.0 | 1.0 | 0.00 | 0.00 | 0.00 | 85 | 1018.7 |
| 20260506081326 | 57 | 169 | 0.0 | 0.0 | 0.00 | 0.00 | 0.00 | 85 | 1018.8 |
| 20260506080823 | 57 | 179 | 0.0 | 2.0 | 0.00 | 0.00 | 0.00 | 84 | 1018.8 |
| 20260506080319 | 57 | 175 | 0.0 | 1.0 | 0.00 | 0.00 | 0.00 | 84 | 1018.9 |
| 20260506073304 | 57 | 170 | 0.0 | 2.0 | 0.00 | 0.00 | 0.00 | 84 | 1018.6 |
| 20260506072800 | 57 | 174 | 0.0 | 0.0 | 0.00 | 0.00 | 0.00 | 84 | 1018.4 |
| 20260506072258 | 57 | 176 | 0.0 | 0.0 | 0.00 | 0.00 | 0.00 | 84 | 1018.4 |
| 20260506071755 | 57 | 184 | 0.0 | 1.0 | 0.00 | 0.00 | 0.00 | 84 | 1018.3 |
| 20260506071254 | 57 | 180 | 0.0 | 1.0 | 0.00 | 0.00 | 0.00 | 84 | 1018.3 |
| 20260506070750 | 57 | 188 | 0.0 | 2.0 | 0.00 | 0.00 | 0.00 | 83 | 1018.4 |
| 20260506070247 | 57 | 180 | 0.0 | 2.0 | 0.00 | 0.00 | 0.00 | 83 | 1018.3 |
| 20260506062224 | 58 | 236 | 0.0 | 1.0 | 0.00 | 0.00 | 0.00 | 83 | 1018.1 |
| 20260506061720 | 58 | 173 | 0.0 | 1.0 | 0.00 | 0.00 | 0.00 | 83 | 1018.2 |
| 20260506061218 | 58 | 178 | 0.0 | 1.0 | 0.00 | 0.00 | 0.00 | 83 | 1018.0 |
| 20260506060716 | 58 | 177 | 0.0 | 1.0 | 0.00 | 0.00 | 0.00 | 83 | 1018.0 |
| 20260506060213 | 59 | 187 | 0.0 | 0.0 | 0.00 | 0.00 | 0.00 | 83 | 1018.0 |